Wind_Speed
6 8 11 14 15 14 9 10 11 4 4 6 9 10 14 16 15 15 14 13 11 10 11 10 8 7 8 9 10 13 13 16 15 15 15 9 14 12 11 13 14 15 16 16
6 14 13 7 8 11 12 12 11 4 3 6 6 9 14 16 16 17 16 15 14 13 12 10 8 7 7 8 10 11 12 13 14 12 13 11 13 11 12 14 13 15 15 16
16 2 2 13 11 13 14 13 9 10 4 3 6 11 16 17 15 17 16 15 15 14 13 11 9 6 6 7 8 9 10 10 12 12 11 12 11 11 13 15 14 17 15 15
13 14 7 12 15 13 12 10 12 11 8 11 7 5 16 17 19 19 18 17 16 15 13 13 11 9 6 5 5 7 7 8 10 12 12 13 13 14 15 15 16 17 15 15
10 11 18 14 12 14 3 2 8 8 10 9 12 8 4 16 16 22 21 20 18 17 16 14 13 10 7 5 4 5 6 8 10 11 12 13 13 14 14 15 17 16 16 15
16 2 9 14 9 14 9 8 5 3 5 11 18 13 12 11 18 17 20 20 20 18 16 16 13 11 8 6 4 4 6 7 8 9 11 12 13 14 15 15 15 15 16 16
16 15 5 8 9 9 15 11 5 7 7 10 1 10 15 6 5 8 20 21 21 19 17 15 16 13 9 6 4 3 4 6 7 8 10 12 13 13 14 15 16 18 17 17
14 10 20 16 14 9 22 19 8 11 13 11 5 9 3 3 6 6 11 18 19 19 17 16 16 13 10 7 4 3 3 5 7 9 12 13 14 14 14 15 16 16 17 17
9 10 2 4 10 12 9 15 17 11 3 5 10 11 6 7 7 10 12 18 20 19 18 16 16 13 10 8 5 2 3 6 7 9 12 13 14 14 14 14 14 15 16 18
4 6 4 6 6 10 12 8 7 10 9 16 12 12 11 12 14 13 15 18 19 19 17 15 16 14 10 8 5 3 4 5 6 9 11 12 13 13 13 13 14 16 18 19
10 5 4 5 12 16 10 13 8 9 15 13 15 12 5 4 14 17 17 17 20 20 18 15 16 14 11 8 5 3 2 4 7 9 12 12 12 13 13 13 15 16 18 19
10 2 9 15 2 5 14 18 20 8 12 6 6 17 6 6 10 13 14 17 18 19 17 15 17 15 11 7 5 3 1 3 7 10 11 12 11 12 13 14 16 17 18 18
8 7 10 7 9 4 7 15 16 16 2 17 11 11 4 7 8 12 14 17 18 18 17 14 17 14 11 8 6 3 1 3 7 10 11 10 11 12 13 14 15 17 18 18
6 8 12 17 12 2 7 15 13 17 12 18 17 21 14 11 12 13 15 17 18 18 18 16 14 15 12 9 8 4 1 4 8 9 9 9 10 11 13 14 15 17 18 18
2 7 12 18 20 19 12 14 19 23 27 13 21 24 30 19 16 15 15 16 19 19 19 17 15 15 13 10 7 4 1 5 7 7 8 9 10 12 13 14 15 16 17 17
2 4 10 19 26 24 22 22 27 24 24 23 23 27 19 5 6 13 14 17 19 19 18 17 14 15 12 9 6 3 2 4 6 6 8 9 11 12 14 15 16 17 17 17
10 5 4 7 17 16 14 31 26 28 27 21 19 26 15 9 11 12 13 16 19 19 18 16 14 14 11 9 5 2 2 3 4 6 7 9 11 13 14 15 16 17 17 18
6 11 6 4 6 7 11 8 24 26 22 20 17 12 8 9 6 5 9 15 17 18 18 15 17 15 11 8 5 2 2 3 4 6 7 9 11 13 14 15 16 17 18 18
10 5 3 4 7 9 15 11 13 13 27 25 23 18 9 11 11 6 6 13 17 18 18 18 16 14 11 7 4 3 4 3 4 6 8 10 12 14 14 16 17 17 18 19
16 14 7 7 6 8 7 4 13 7 17 13 19 15 13 13 8 6 12 17 18 21 21 20 17 14 10 7 5 5 3 3 5 7 9 10 11 13 14 16 16 17 18 19
6 5 13 12 11 7 9 8 11 11 4 7 12 14 15 12 2 20 17 17 21 21 21 18 14 12 9 7 6 5 3 4 6 7 9 10 11 13 13 15 16 18 18 19
12 8 6 6 8 12 13 13 13 4 3 8 9 12 14 14 18 20 18 18 19 20 19 15 14 11 9 8 5 4 4 5 6 7 8 10 12 12 14 15 16 17 17 18
7 7 7 9 7 2 12 3 2 4 10 8 12 15 16 20 20 20 17 17 17 18 16 13 13 12 10 7 5 5 5 6 5 7 9 10 11 12 13 14 15 15 15 17
11 6 3 2 10 9 9 4 1 3 7 13 13 17 19 21 20 19 16 15 16 16 14 13 13 11 10 7 6 5 5 4 4 6 8 9 10 13 13 12 13 14 15 17
8 10 12 11 11 5 9 8 6 7 11 15 16 17 18 20 19 18 16 14 16 15 14 13 11 10 9 7 6 5 4 4 4 5 7 9 9 12 13 12 11 11 12 14
8 9 10 8 8 8 11 14 13 15 16 18 18 17 16 16 18 17 14 17 16 15 14 13 12 10 9 7 6 5 4 5 6 5 7 8 9 11 12 14 14 10 7 11
Wind_Direction
205 231 222 229 231 268 271 250 249 224 131 235 222 205 180 180 195 191 187 180 173 160 147 133 113 92 75 58 48 40 34 28 28 23 18 12 5 4 3 1 358 358 354 353
214 240 244 243 229 228 230 237 235 223 187 255 203 201 182 188 199 195 195 190 181 165 165 151 132 103 75 57 47 40 37 31 28 23 16 7 356 353 354 350 351 353 351 350
236 252 297 211 209 214 225 232 229 259 170 226 209 218 197 200 206 205 205 198 189 184 173 162 153 127 96 67 53 45 39 35 29 24 13 8 360 353 348 348 345 344 344 344
240 231 202 201 221 213 228 228 242 245 240 247 216 275 191 187 202 206 202 200 193 185 174 169 163 150 120 99 79 56 46 38 30 23 16 9 1 350 344 339 335 336 336 337
210 205 208 211 215 199 232 204 212 228 243 285 221 259 195 184 208 210 206 199 197 188 181 175 171 152 138 118 97 69 52 39 29 22 16 6 357 345 335 331 328 327 330 332
259 296 215 224 217 200 142 142 142 199 257 248 242 228 261 183 217 209 203 199 197 189 181 173 167 163 148 136 114 79 48 36 24 17 10 2 350 340 333 331 328 331 329 328
221 221 188 174 173 188 196 183 203 223 216 249 77 220 254 154 172 210 197 195 193 187 181 177 176 177 161 148 127 99 47 33 18 10 2 356 348 339 334 334 333 331 330 330
210 209 207 186 215 197 205 204 212 238 247 253 161 231 242 126 179 178 188 191 187 185 184 185 181 173 163 162 146 113 52 27 14 4 357 352 347 340 335 334 331 328 328 327
206 229 226 205 200 194 184 227 240 268 249 266 243 231 196 174 182 188 184 181 186 186 187 184 176 173 171 168 151 110 38 19 8 357 349 346 343 339 333 331 329 329 327 328
219 256 181 160 198 222 233 185 195 217 239 239 253 254 260 194 204 185 183 188 185 189 186 182 177 174 172 164 150 108 35 6 355 349 345 342 338 336 331 330 333 333 330 329
219 232 138 166 210 208 199 214 229 255 232 251 256 250 69 236 187 190 193 190 188 188 186 180 177 172 167 162 144 108 23 354 344 340 340 340 340 336 333 335 338 335 332 331
215 226 241 228 202 295 261 232 213 216 206 237 266 257 132 144 178 191 189 191 189 188 184 179 171 167 165 155 143 148 30 357 341 337 339 339 340 339 337 340 340 335 334 332
160 202 237 241 224 195 237 227 240 228 258 225 226 250 159 160 183 192 192 187 188 186 178 171 170 162 143 141 144 156 95 358 339 338 338 338 341 341 341 342 340 336 333 332
223 203 217 243 261 10 226 222 228 236 229 242 240 264 244 210 209 198 198 190 188 185 177 174 170 157 148 141 150 154 94 354 343 340 336 338 340 340 343 343 341 337 335 332
45 247 240 257 264 263 240 258 223 217 230 217 243 243 253 251 223 209 199 193 186 184 179 175 166 160 155 157 158 147 47 352 341 337 337 341 342 343 345 345 340 337 336 334
334 228 230 240 249 250 251 253 239 244 244 237 247 256 260 259 204 212 202 191 189 182 179 172 160 151 151 157 149 126 19 353 340 342 341 343 346 347 347 343 340 339 338 337
173 175 214 243 242 251 254 235 245 247 244 239 235 241 252 198 208 208 194 192 186 178 172 161 150 148 147 143 129 91 12 2 352 345 345 347 349 348 345 342 341 340 340 338
199 193 188 247 176 210 241 238 224 237 238 227 238 230 221 222 160 189 196 187 174 166 161 148 143 142 138 129 115 116 59 28 1 351 349 351 350 347 344 343 342 341 340 339
196 210 216 224 224 297 287 231 210 209 244 238 243 239 181 148 123 77 164 164 158 155 146 141 139 132 127 125 127 111 68 31 10 357 353 353 350 345 343 343 342 342 340 341
199 219 208 222 228 233 259 241 198 187 262 225 211 201 177 163 201 148 156 145 136 135 133 134 130 126 125 121 113 90 70 35 12 358 356 353 348 343 341 341 341 341 340 341
199 210 213 222 240 242 249 167 171 196 239 173 193 175 175 187 353 133 137 134 134 131 130 128 127 125 121 113 100 96 77 37 9 5 359 354 348 344 341 340 342 342 344 343
193 195 208 224 231 245 175 162 191 184 103 152 155 151 143 123 125 133 135 132 132 132 131 130 129 123 116 103 106 102 68 30 19 11 3 356 351 349 345 344 345 345 347 345
222 209 231 213 231 42 194 293 137 190 151 152 144 139 141 139 140 140 137 138 138 136 133 136 129 121 110 104 98 92 51 32 26 19 8 358 355 354 352 349 349 347 346 346
219 191 218 260 234 221 216 208 235 274 147 142 146 146 144 139 142 140 142 140 139 138 136 135 131 124 121 114 95 75 52 35 37 23 8 360 356 357 357 354 352 350 351 348
218 180 222 236 236 242 246 217 179 176 133 136 140 145 142 141 144 146 145 142 139 137 138 138 133 132 126 119 94 71 54 46 38 23 10 4 359 357 354 353 351 347 353 353
193 220 203 227 185 202 241 188 177 156 150 144 142 138 142 145 145 143 140 141 141 142 141 139 135 133 130 115 97 81 63 50 31 19 10 4 1 359 353 348 345 350 350 350
Height
796 797 793 782 780 777 784 782 780 775 782 785 783 785 805 812 817 819 824 830 835 840 848 850 852 852 853 853 852 850 849 846 844 843 841 840 838 836 834 832 830 827 824 821
800 793 779 781 787 789 786 785 781 778 784 789 790 790 797 807 809 812 817 823 829 837 844 848 850 852 853 853 852 851 850 849 847 845 843 841 839 836 834 832 830 827 824 821
789 778 784 788 791 792 786 785 781 784 784 787 788 786 796 801 804 807 812 817 824 831 838 845 848 850 852 852 853 852 851 849 848 846 845 843 840 837 834 832 829 827 824 821
785 774 786 787 785 785 786 778 783 785 790 785 785 774 776 786 799 804 809 814 820 825 833 840 845 848 850 852 852 851 851 849 848 846 845 843 841 838 836 833 830 827 824 821
777 780 783 782 779 782 780 784 784 785 787 789 782 787 750 775 791 792 800 809 815 821 827 834 840 844 848 849 850 850 849 848 847 846 844 843 842 839 836 833 830 826 823 820
772 777 774 772 774 780 787 789 793 793 791 794 776 780 748 770 769 776 791 803 809 815 822 830 837 842 844 846 847 847 847 847 847 846 845 843 841 839 835 832 829 824 821 818
777 777 776 778 783 785 782 787 790 796 796 782 778 776 750 760 770 769 780 794 803 811 818 825 832 836 840 843 844 846 846 847 846 846 844 842 840 837 834 831 827 823 820 817
770 775 770 769 765 773 776 775 770 785 773 764 787 778 752 763 767 776 779 789 799 806 814 819 826 832 837 842 844 844 845 845 845 844 843 841 839 836 833 829 826 823 820 816
764 761 760 766 764 767 778 780 764 778 792 787 755 751 765 772 775 777 778 784 793 802 809 815 824 831 836 840 843 844 844 843 844 844 842 840 837 835 832 829 825 822 819 814
758 769 767 769 772 770 767 761 786 783 790 782 749 746 745 765 767 773 776 780 789 799 806 814 822 829 834 837 840 841 842 843 843 842 841 838 836 833 831 827 823 820 817 813
755 766 775 775 769 759 772 771 770 763 761 763 759 740 734 739 753 765 770 778 785 793 802 810 819 827 832 835 837 839 841 842 843 841 839 836 833 831 829 825 821 818 815 811
755 766 768 763 761 766 758 759 762 769 773 778 770 747 742 749 751 758 766 775 781 789 798 808 818 825 829 832 835 838 839 840 842 841 837 835 831 829 827 823 819 817 813 809
756 768 775 763 765 770 770 759 756 759 771 763 766 745 745 751 756 757 762 770 776 785 795 806 816 823 828 832 834 837 837 837 838 838 836 834 831 828 825 821 818 815 811 808
758 755 753 750 742 749 764 759 762 763 769 750 748 744 739 751 753 755 758 763 771 781 791 803 812 823 827 831 834 835 836 836 836 836 835 832 829 826 823 819 816 813 810 806
766 768 756 752 748 748 765 755 753 758 749 761 748 757 736 731 742 748 752 758 766 778 790 798 806 815 822 828 832 833 833 834 834 834 833 830 827 824 821 817 814 812 808 805
787 775 770 769 755 754 759 759 746 744 744 738 734 730 718 721 732 743 747 756 763 775 787 795 802 809 818 825 828 831 831 832 833 832 831 828 825 822 818 816 812 809 806 802
779 774 777 760 748 751 762 739 740 730 727 731 731 719 719 731 737 741 746 753 761 773 785 794 801 810 818 823 826 828 831 830 831 830 829 826 823 820 817 814 811 807 803 800
769 767 767 756 751 757 718 712 718 720 720 722 720 716 724 726 736 738 742 752 761 774 786 794 803 811 817 821 825 828 829 829 829 829 827 824 821 819 816 813 809 806 802 798
766 767 755 748 747 729 718 714 720 719 710 709 710 716 733 740 746 755 752 755 766 777 787 796 804 810 815 821 825 826 826 828 828 828 825 823 820 818 814 811 808 805 800 796
757 752 751 752 740 731 703 702 709 715 713 703 707 714 731 737 730 743 758 763 773 783 790 798 805 811 816 820 823 824 826 827 827 826 823 821 819 817 814 811 807 803 799 795
752 755 747 741 732 715 699 711 714 718 704 701 707 710 725 729 733 749 766 774 781 787 793 800 806 811 816 819 821 824 826 827 826 824 822 820 819 816 813 810 806 802 798 794
738 741 739 738 729 719 697 710 708 701 710 711 714 718 729 743 752 760 769 776 785 792 797 802 807 812 816 818 821 824 826 826 824 823 822 820 819 816 812 809 805 801 798 794
727 716 707 710 699 709 702 703 709 707 707 715 719 724 735 744 751 761 770 779 788 792 797 804 807 812 816 819 822 824 825 824 824 823 822 821 818 816 812 809 805 802 799 795
711 713 720 718 698 703 710 715 714 717 709 715 724 729 735 743 754 764 774 781 789 794 799 804 808 812 817 820 822 823 824 824 824 823 822 821 818 815 813 809 806 803 800 797
699 710 703 706 701 711 711 711 715 719 716 720 728 734 739 747 757 765 774 781 788 795 801 805 808 813 817 820 822 823 824 824 823 823 822 820 817 814 812 809 807 804 802 800
698 695 700 698 699 703 697 708 716 717 720 724 729 738 745 750 758 767 775 783 789 796 801 806 810 814 817 820 822 823 824 824 823 822 820 819 816 814 812 809 806 804 801 799